Location: Washington
(38.8950°N, 77.0367°W)
Time: 23:08:48
(UTC-05:00)

N. Korean satellite - Visible Passes

Search period start: 24 February 2018 00:00
Search period end: 06 March 2018 00:00
Orbit: 459 x 514 km, 97.2° (Epoch: 24 February)

Date Brightness Start Highest point End Pass type
(mag) Time Alt. Az. Time Alt. Az. Time Alt. Az.
24 Feb 10.4 19:11:57 10° WSW 19:12:56 11° W 19:13:55 10° WNW visible
25 Feb 9.4 18:46:15 10° SSW 18:49:00 22° W 18:51:48 10° NW visible
26 Feb 9.1 06:13:48 10° NE 06:17:05 29° E 06:20:23 10° SSE visible
26 Feb 7.8 18:21:50 10° S 18:25:09 46° W 18:28:34 10° NNW visible
27 Feb 10.2 05:50:58 10° NE 05:53:13 15° E 05:55:27 10° SE visible
28 Feb 10.3 19:10:07 10° WSW 19:11:22 12° W 19:12:37 10° WNW visible
01 Mar 9.4 18:44:35 10° SSW 18:47:25 23° W 18:50:18 10° NW visible
02 Mar 9.2 06:12:15 10° NE 06:15:33 28° E 06:18:49 10° SSE visible
03 Mar 10.2 05:49:28 10° ENE 05:51:38 15° E 05:53:49 10° SE visible
04 Mar 10.2 19:08:15 10° WSW 19:09:44 12° W 19:11:14 10° WNW visible
05 Mar 9.3 18:42:53 10° SSW 18:45:48 24° W 18:48:46 10° NW visible
